Time,TemperatureF,DewpointF,PressureIn,WindDirection,WindDirectionDegrees,WindSpeedMPH,WindSpeedGustMPH,Humidity,HourlyPrecipIn,Conditions,Clouds,dailyrainin,SoftwareType,DateUTC
2013-08-05 00:01:00,72.1,63.4,29.98,WNW,302,0.0,0.0,74,0.00,,SKC,0.00,VWS V14.00,2013-08-05 04:01:00,
2013-08-05 00:06:00,71.9,63.5,29.98,WNW,302,0.0,0.0,75,0.00,,SKC,0.00,VWS V14.00,2013-08-05 04:06:00,
2013-08-05 00:11:00,71.6,63.6,29.98,WNW,302,0.0,1.0,76,0.00,,SKC,0.00,VWS V14.00,2013-08-05 04:11:00,
2013-08-05 00:16:00,71.4,63.5,29.98,WNW,302,0.0,0.0,76,0.00,,SKC,0.00,VWS V14.00,2013-08-05 04:16:00,
2013-08-05 00:21:00,71.3,63.3,29.97,WNW,302,0.0,1.0,76,0.00,,SKC,0.00,VWS V14.00,2013-08-05 04:21:00,
2013-08-05 00:26:00,71.1,63.5,29.97,WNW,302,0.0,0.0,77,0.00,,SKC,0.00,VWS V14.00,2013-08-05 04:26:00,
2013-08-05 00:31:00,71.1,63.5,29.97,WNW,302,0.0,0.0,77,0.00,,SKC,0.00,VWS V14.00,2013-08-05 04:31:00,
2013-08-05 00:36:00,71.1,63.5,29.97,WNW,302,0.0,0.0,77,0.00,,SKC,0.00,VWS V14.00,2013-08-05 04:36:00,
2013-08-05 00:41:00,71.1,63.5,29.97,WNW,302,0.0,0.0,77,0.00,,SKC,0.00,VWS V14.00,2013-08-05 04:41:00,
2013-08-05 00:46:00,71.1,63.5,29.97,WNW,302,0.0,0.0,77,0.00,,SKC,0.00,VWS V14.00,2013-08-05 04:46:00,
2013-08-05 00:51:00,71.1,63.5,29.95,WNW,302,0.0,0.0,77,0.00,,SKC,0.00,VWS V14.00,2013-08-05 04:51:00,
2013-08-05 00:56:00,71.1,63.5,29.95,WNW,302,0.0,0.0,77,0.00,,SKC,0.00,VWS V14.00,2013-08-05 04:56:00,
2013-08-05 01:01:00,71.1,63.5,29.95,WNW,302,0.0,0.0,77,0.00,,SKC,0.00,VWS V14.00,2013-08-05 05:01:00,
2013-08-05 01:06:00,71.1,63.5,29.95,WNW,302,0.0,0.0,77,0.00,,SKC,0.00,VWS V14.00,2013-08-05 05:06:00,
2013-08-05 01:12:00,71.1,63.5,29.95,WNW,302,0.0,0.0,77,0.00,,SKC,0.00,VWS V14.00,2013-08-05 05:12:00,
2013-08-05 01:17:00,71.1,63.5,29.95,WNW,302,0.0,0.0,77,0.00,,SKC,0.00,VWS V14.00,2013-08-05 05:17:00,
2013-08-05 01:22:00,71.1,63.5,30.03,WNW,302,0.0,0.0,77,0.00,,SKC,0.00,VWS V14.00,2013-08-05 05:22:00,
2013-08-05 01:27:00,69.8,63.4,30.03,WNW,302,0.0,0.0,80,0.00,,SKC,0.00,VWS V14.00,2013-08-05 05:27:00,
2013-08-05 01:31:00,69.6,63.2,30.03,WNW,302,0.0,0.0,80,0.00,,SKC,0.00,VWS V14.00,2013-08-05 05:31:00,
2013-08-05 01:37:00,69.6,63.2,29.98,WNW,302,0.0,0.0,80,0.00,,SKC,0.00,VWS V14.00,2013-08-05 05:37:00,
2013-08-05 01:42:00,69.4,63.0,29.98,WNW,302,0.0,0.0,80,0.00,,SKC,0.00,VWS V14.00,2013-08-05 05:42:00,
2013-08-05 01:47:00,69.4,63.3,29.98,WNW,302,0.0,0.0,81,0.00,,SKC,0.00,VWS V14.00,2013-08-05 05:47:00,
2013-08-05 01:52:00,69.4,63.3,29.98,WNW,302,0.0,0.0,81,0.00,,SKC,0.00,VWS V14.00,2013-08-05 05:52:00,
2013-08-05 01:57:00,69.3,63.2,29.98,WNW,302,0.0,0.0,81,0.00,,SKC,0.00,VWS V14.00,2013-08-05 05:57:00,
2013-08-05 02:02:00,69.3,63.2,29.98,WNW,302,0.0,0.0,81,0.00,,SKC,0.00,VWS V14.00,2013-08-05 06:02:00,
2013-08-05 02:07:00,69.3,63.2,30.02,WNW,302,0.0,0.0,81,0.00,,SKC,0.00,VWS V14.00,2013-08-05 06:07:00,
2013-08-05 02:12:00,69.3,63.2,30.02,WNW,302,0.0,0.0,81,0.00,,SKC,0.00,VWS V14.00,2013-08-05 06:12:00,
2013-08-05 02:17:00,69.3,63.2,30.02,WNW,302,0.0,0.0,81,0.00,,SKC,0.00,VWS V14.00,2013-08-05 06:17:00,
2013-08-05 02:22:00,69.3,63.2,29.93,WNW,302,0.0,0.0,81,0.00,,SKC,0.00,VWS V14.00,2013-08-05 06:22:00,
2013-08-05 02:27:00,69.3,63.2,29.93,WNW,302,0.0,0.0,81,0.00,,SKC,0.00,VWS V14.00,2013-08-05 06:27:00,
2013-08-05 02:30:00,69.3,63.2,29.92,WNW,302,0.0,0.0,81,0.00,,SKC,0.00,VWS V14.00,2013-08-05 06:30:00,
2013-08-05 02:31:00,69.3,63.2,29.93,WNW,302,0.0,0.0,81,0.00,,SKC,0.00,VWS V14.00,2013-08-05 06:31:00,
2013-08-05 02:36:00,69.3,63.2,29.92,WNW,302,0.0,0.0,81,0.00,,SKC,0.00,VWS V14.00,2013-08-05 06:36:00,
2013-08-05 02:42:00,69.3,63.2,29.92,WNW,302,0.0,0.0,81,0.00,,SKC,0.00,VWS V14.00,2013-08-05 06:42:00,
2013-08-05 02:47:00,69.3,63.2,29.92,WNW,302,0.0,0.0,81,0.00,,SKC,0.00,VWS V14.00,2013-08-05 06:47:00,
2013-08-05 02:52:00,69.3,63.2,29.92,WNW,302,0.0,0.0,81,0.00,,SKC,0.00,VWS V14.00,2013-08-05 06:52:00,
2013-08-05 02:57:00,68.3,62.6,29.92,WNW,302,0.0,0.0,82,0.00,,SKC,0.00,VWS V14.00,2013-08-05 06:57:00,
2013-08-05 03:01:00,68.3,62.6,29.92,WNW,302,0.0,0.0,82,0.00,,SKC,0.00,VWS V14.00,2013-08-05 07:01:00,
2013-08-05 03:07:00,68.1,62.4,29.94,WNW,302,0.0,1.0,82,0.00,,SKC,0.00,VWS V14.00,2013-08-05 07:07:00,
2013-08-05 03:12:00,68.1,62.4,29.94,WNW,302,0.0,1.0,82,0.00,,SKC,0.00,VWS V14.00,2013-08-05 07:12:00,
2013-08-05 03:17:00,68.0,62.3,29.94,WNW,302,0.0,0.0,82,0.00,,SKC,0.00,VWS V14.00,2013-08-05 07:17:00,
2013-08-05 03:22:00,68.0,62.3,29.94,WNW,302,0.0,1.0,82,0.00,,SKC,0.00,VWS V14.00,2013-08-05 07:22:00,
2013-08-05 03:27:00,68.0,62.3,29.94,WNW,302,1.0,1.0,82,0.00,,SKC,0.00,VWS V14.00,2013-08-05 07:27:00,
2013-08-05 03:32:00,68.0,62.3,29.94,WNW,302,1.0,1.0,82,0.00,,SKC,0.00,VWS V14.00,2013-08-05 07:32:00,
2013-08-05 03:37:00,68.0,62.3,29.92,WNW,302,1.0,1.0,82,0.00,,SKC,0.00,VWS V14.00,2013-08-05 07:37:00,
2013-08-05 03:42:00,68.0,62.3,29.92,WNW,302,1.0,1.0,82,0.00,,SKC,0.00,VWS V14.00,2013-08-05 07:42:00,
2013-08-05 03:47:00,68.0,62.3,29.92,WNW,302,1.0,1.0,82,0.00,,SKC,0.00,VWS V14.00,2013-08-05 07:47:00,
2013-08-05 03:52:00,68.0,62.3,29.90,WNW,302,1.0,1.0,82,0.00,,SKC,0.00,VWS V14.00,2013-08-05 07:52:00,
2013-08-05 03:57:00,68.0,62.3,29.90,WNW,302,1.0,1.0,82,0.00,,SKC,0.00,VWS V14.00,2013-08-05 07:57:00,
2013-08-05 04:02:00,68.0,62.3,29.90,WNW,302,1.0,1.0,82,0.00,,SKC,0.00,VWS V14.00,2013-08-05 08:02:00,
2013-08-05 04:07:00,68.0,62.3,29.91,WNW,302,1.0,1.0,82,0.00,,SKC,0.00,VWS V14.00,2013-08-05 08:07:00,
2013-08-05 04:12:00,68.0,62.3,29.91,WNW,302,1.0,1.0,82,0.00,,SKC,0.00,VWS V14.00,2013-08-05 08:12:00,
2013-08-05 04:17:00,68.0,62.3,29.91,WNW,302,1.0,1.0,82,0.00,,SKC,0.00,VWS V14.00,2013-08-05 08:17:00,
2013-08-05 04:22:00,68.0,62.3,30.00,WNW,302,1.0,1.0,82,0.00,,SKC,0.00,VWS V14.00,2013-08-05 08:22:00,
2013-08-05 04:27:00,68.0,62.3,30.00,WNW,302,1.0,1.0,82,0.00,,SKC,0.00,VWS V14.00,2013-08-05 08:27:00,
2013-08-05 04:32:00,68.0,62.3,30.00,WNW,302,1.0,1.0,82,0.00,,SKC,0.00,VWS V14.00,2013-08-05 08:32:00,
2013-08-05 04:37:00,68.0,62.3,30.00,WNW,302,1.0,1.0,82,0.00,,SKC,0.00,VWS V14.00,2013-08-05 08:37:00,
2013-08-05 04:42:00,68.0,62.3,30.00,WNW,302,1.0,1.0,82,0.00,,SKC,0.00,VWS V14.00,2013-08-05 08:42:00,
2013-08-05 04:47:00,68.0,62.3,30.00,WNW,302,1.0,1.0,82,0.00,,SKC,0.00,VWS V14.00,2013-08-05 08:47:00,
2013-08-05 04:53:00,68.0,62.3,30.00,WNW,302,1.0,1.0,82,0.00,,SKC,0.00,VWS V14.00,2013-08-05 08:53:00,
2013-08-05 04:58:00,68.0,62.3,30.00,WNW,302,1.0,1.0,82,0.00,,SKC,0.00,VWS V14.00,2013-08-05 08:58:00,
2013-08-05 05:03:00,68.0,62.3,30.00,WNW,302,1.0,1.0,82,0.00,,SKC,0.00,VWS V14.00,2013-08-05 09:03:00,
2013-08-05 05:08:00,68.0,62.3,30.00,WNW,302,1.0,1.0,82,0.00,,SKC,0.00,VWS V14.00,2013-08-05 09:08:00,
2013-08-05 05:13:00,68.0,62.3,30.00,WNW,302,1.0,1.0,82,0.00,,SKC,0.00,VWS V14.00,2013-08-05 09:13:00,
2013-08-05 05:18:00,67.7,61.3,30.00,WNW,302,0.0,1.0,80,0.00,,SKC,0.00,VWS V14.00,2013-08-05 09:18:00,
2013-08-05 05:23:00,67.8,61.4,29.96,WNW,303,0.0,1.0,80,0.00,,SKC,0.00,VWS V14.00,2013-08-05 09:23:00,
2013-08-05 05:28:00,67.8,61.4,29.96,WNW,302,0.0,0.0,80,0.00,,SKC,0.00,VWS V14.00,2013-08-05 09:28:00,
2013-08-05 05:33:00,67.8,61.4,29.96,WNW,302,0.0,1.0,80,0.00,,SKC,0.00,VWS V14.00,2013-08-05 09:33:00,
2013-08-05 05:38:00,67.8,61.4,29.96,WNW,302,0.0,0.0,80,0.00,,SKC,0.00,VWS V14.00,2013-08-05 09:38:00,
2013-08-05 05:43:00,67.8,61.4,29.96,WNW,302,0.0,0.0,80,0.00,,SKC,0.00,VWS V14.00,2013-08-05 09:43:00,
2013-08-05 05:48:00,67.8,61.1,29.96,WNW,302,0.0,1.0,79,0.00,,SKC,0.00,VWS V14.00,2013-08-05 09:48:00,
2013-08-05 05:53:00,68.0,61.2,29.96,WNW,302,0.0,1.0,79,0.00,,SKC,0.00,VWS V14.00,2013-08-05 09:53:00,
2013-08-05 05:58:00,68.1,61.3,29.96,WNW,302,0.0,2.0,79,0.00,,SKC,0.00,VWS V14.00,2013-08-05 09:58:00,
2013-08-05 06:03:00,68.1,61.3,29.96,WNW,302,0.0,2.0,79,0.00,,SKC,0.00,VWS V14.00,2013-08-05 10:03:00,
2013-08-05 06:08:00,68.1,61.3,29.96,WNW,302,0.0,0.0,79,0.00,,SKC,0.00,VWS V14.00,2013-08-05 10:08:00,
2013-08-05 06:13:00,68.1,61.3,29.96,WNW,302,0.0,1.0,79,0.00,,SKC,0.00,VWS V14.00,2013-08-05 10:13:00,
2013-08-05 06:18:00,68.1,61.3,29.96,WNW,302,0.0,0.0,79,0.00,,SKC,0.00,VWS V14.00,2013-08-05 10:18:00,
2013-08-05 06:23:00,68.1,61.3,29.95,WNW,302,0.0,0.0,79,0.00,,SKC,0.00,VWS V14.00,2013-08-05 10:23:00,
2013-08-05 06:28:00,68.1,61.3,29.95,WNW,302,0.0,0.0,79,0.00,,SKC,0.00,VWS V14.00,2013-08-05 10:28:00,
2013-08-05 06:33:00,68.1,61.3,29.95,WNW,302,0.0,0.0,79,0.00,,SKC,0.00,VWS V14.00,2013-08-05 10:33:00,
2013-08-05 06:39:00,68.1,61.3,29.93,WNW,302,0.0,0.0,79,0.00,,SKC,0.00,VWS V14.00,2013-08-05 10:39:00,
2013-08-05 06:43:00,68.1,61.3,29.93,WNW,302,0.0,0.0,79,0.00,,SKC,0.00,VWS V14.00,2013-08-05 10:43:00,
2013-08-05 06:49:00,68.1,61.3,29.94,WNW,302,0.0,0.0,79,0.00,,SKC,0.00,VWS V14.00,2013-08-05 10:49:00,
2013-08-05 06:54:00,68.1,61.3,29.94,WNW,302,0.0,0.0,79,0.00,,SKC,0.00,VWS V14.00,2013-08-05 10:54:00,
2013-08-05 06:59:00,68.1,61.3,29.94,WNW,302,0.0,0.0,79,0.00,,SKC,0.00,VWS V14.00,2013-08-05 10:59:00,
2013-08-05 07:04:00,68.1,61.3,29.94,WNW,302,0.0,0.0,79,0.00,,SKC,0.00,VWS V14.00,2013-08-05 11:04:00,
2013-08-05 07:09:00,68.1,61.3,29.94,WNW,302,0.0,0.0,79,0.00,,SKC,0.00,VWS V14.00,2013-08-05 11:09:00,
2013-08-05 07:14:00,68.1,61.3,29.94,WNW,302,0.0,0.0,79,0.00,,SKC,0.00,VWS V14.00,2013-08-05 11:14:00,
2013-08-05 07:19:00,68.1,61.3,30.01,WNW,302,0.0,0.0,79,0.00,,SKC,0.00,VWS V14.00,2013-08-05 11:19:00,
2013-08-05 07:24:00,68.1,61.3,30.01,WNW,302,0.0,0.0,79,0.00,,SKC,0.00,VWS V14.00,2013-08-05 11:24:00,
2013-08-05 07:29:00,68.1,61.3,30.01,WNW,302,0.0,0.0,79,0.00,,SKC,0.00,VWS V14.00,2013-08-05 11:29:00,
2013-08-05 07:30:00,68.1,61.3,30.02,WNW,302,0.0,0.0,79,0.00,,SKC,0.00,VWS V14.00,2013-08-05 11:30:00,
2013-08-05 07:35:00,68.1,61.3,30.02,WNW,302,0.0,0.0,79,0.00,,SKC,0.00,VWS V14.00,2013-08-05 11:35:00,
2013-08-05 07:40:00,68.1,61.3,30.02,WNW,302,0.0,0.0,79,0.00,,SKC,0.00,VWS V14.00,2013-08-05 11:40:00,
2013-08-05 07:45:00,68.1,61.3,30.02,WNW,302,0.0,0.0,79,0.00,,SKC,0.00,VWS V14.00,2013-08-05 11:45:00,
2013-08-05 07:50:00,68.1,61.3,30.02,WNW,302,0.0,0.0,79,0.00,,SKC,0.00,VWS V14.00,2013-08-05 11:50:00,
2013-08-05 07:55:00,68.1,61.3,30.02,WNW,302,0.0,0.0,79,0.00,,SKC,0.00,VWS V14.00,2013-08-05 11:55:00,
2013-08-05 08:00:00,68.1,61.3,30.02,WNW,302,0.0,0.0,79,0.00,,SKC,0.00,VWS V14.00,2013-08-05 12:00:00,
2013-08-05 08:05:00,68.1,61.3,30.03,WNW,302,0.0,0.0,79,0.00,,SKC,0.00,VWS V14.00,2013-08-05 12:05:00,
2013-08-05 08:11:00,68.1,61.3,30.03,WNW,302,0.0,0.0,79,0.00,,SKC,0.00,VWS V14.00,2013-08-05 12:11:00,
2013-08-05 08:16:00,68.1,61.3,30.03,WNW,302,0.0,0.0,79,0.00,,SKC,0.00,VWS V14.00,2013-08-05 12:16:00,
2013-08-05 08:21:00,68.1,61.3,30.04,WNW,302,0.0,0.0,79,0.00,,SKC,0.00,VWS V14.00,2013-08-05 12:21:00,
2013-08-05 08:26:00,68.1,61.3,30.04,WNW,302,0.0,0.0,79,0.00,,SKC,0.00,VWS V14.00,2013-08-05 12:26:00,
2013-08-05 08:31:00,68.1,61.3,30.04,WNW,302,0.0,0.0,79,0.00,,SKC,0.00,VWS V14.00,2013-08-05 12:31:00,
2013-08-05 08:36:00,68.1,61.3,30.04,WNW,302,0.0,0.0,79,0.00,,SKC,0.00,VWS V14.00,2013-08-05 12:36:00,
2013-08-05 08:41:00,68.1,61.3,30.04,WNW,302,0.0,0.0,79,0.00,,SKC,0.00,VWS V14.00,2013-08-05 12:41:00,
2013-08-05 08:46:00,68.1,61.3,30.04,WNW,302,0.0,0.0,79,0.00,,SKC,0.00,VWS V14.00,2013-08-05 12:46:00,
2013-08-05 08:51:00,68.1,61.3,30.04,WNW,302,0.0,0.0,79,0.00,,SKC,0.00,VWS V14.00,2013-08-05 12:51:00,
2013-08-05 08:56:00,68.1,61.3,30.04,WNW,302,0.0,0.0,79,0.00,,SKC,0.00,VWS V14.00,2013-08-05 12:56:00,
2013-08-05 09:01:00,68.1,61.3,30.04,WNW,302,0.0,0.0,79,0.00,,SKC,0.00,VWS V14.00,2013-08-05 13:01:00,
2013-08-05 09:06:00,68.1,61.3,30.05,WNW,302,0.0,0.0,79,0.00,,SKC,0.00,VWS V14.00,2013-08-05 13:06:00,
2013-08-05 09:12:00,68.1,61.3,30.05,WNW,302,0.0,0.0,79,0.00,,SKC,0.00,VWS V14.00,2013-08-05 13:12:00,
2013-08-05 09:17:00,68.1,61.3,30.05,WNW,302,0.0,0.0,79,0.00,,SKC,0.00,VWS V14.00,2013-08-05 13:17:00,
2013-08-05 09:22:00,68.1,61.3,30.05,WNW,302,0.0,0.0,79,0.00,,SKC,0.00,VWS V14.00,2013-08-05 13:22:00,
2013-08-05 09:27:00,68.1,61.3,30.05,WNW,302,0.0,0.0,79,0.00,,SKC,0.00,VWS V14.00,2013-08-05 13:27:00,
2013-08-05 09:32:00,68.1,61.3,30.05,WNW,302,0.0,0.0,79,0.00,,SKC,0.00,VWS V14.00,2013-08-05 13:32:00,
2013-08-05 09:37:00,68.1,61.3,30.05,WNW,302,0.0,0.0,79,0.00,,SKC,0.00,VWS V14.00,2013-08-05 13:37:00,
2013-08-05 09:43:00,68.1,61.3,30.05,WNW,302,0.0,0.0,79,0.00,,SKC,0.00,VWS V14.00,2013-08-05 13:43:00,
2013-08-05 09:48:00,68.1,61.3,30.05,WNW,302,0.0,0.0,79,0.00,,SKC,0.00,VWS V14.00,2013-08-05 13:48:00,
2013-08-05 09:52:00,68.1,61.3,30.05,WNW,302,0.0,0.0,79,0.00,,SKC,0.00,VWS V14.00,2013-08-05 13:52:00,
2013-08-05 09:58:00,68.1,61.3,30.05,WNW,302,0.0,0.0,79,0.00,,SKC,0.00,VWS V14.00,2013-08-05 13:58:00,
2013-08-05 10:03:00,68.1,61.3,30.05,WNW,302,0.0,0.0,79,0.00,,SKC,0.00,VWS V14.00,2013-08-05 14:03:00,
2013-08-05 10:08:00,68.1,61.3,30.05,WNW,302,0.0,0.0,79,0.00,,SKC,0.00,VWS V14.00,2013-08-05 14:08:00,
2013-08-05 10:13:00,68.1,61.3,30.05,WNW,302,0.0,0.0,79,0.00,,SKC,0.00,VWS V14.00,2013-08-05 14:13:00,
2013-08-05 10:18:00,68.1,61.3,30.05,WNW,302,0.0,0.0,79,0.00,,SKC,0.00,VWS V14.00,2013-08-05 14:18:00,
2013-08-05 10:23:00,78.3,62.3,30.00,East,85,6.0,10.0,58,0.00,,SKC,0.00,VWS V14.00,2013-08-05 14:23:00,
2013-08-05 10:28:00,78.5,62.0,30.00,ESE,108,11.0,13.0,57,0.00,,SKC,0.00,VWS V14.00,2013-08-05 14:28:00,
2013-08-05 10:33:00,78.5,62.5,30.00,East,97,10.0,13.0,58,0.00,,SKC,0.00,VWS V14.00,2013-08-05 14:33:00,
2013-08-05 10:38:00,78.5,62.5,29.99,ENE,69,5.0,13.0,58,0.00,,SKC,0.00,VWS V14.00,2013-08-05 14:38:00,
2013-08-05 10:43:00,78.8,62.8,29.99,East,101,4.0,13.0,58,0.00,,SKC,0.00,VWS V14.00,2013-08-05 14:43:00,
2013-08-05 10:48:00,79.0,62.5,29.99,East,85,4.0,11.0,57,0.00,,SKC,0.00,VWS V14.00,2013-08-05 14:48:00,
2013-08-05 10:53:00,79.2,62.7,29.99,ENE,75,0.0,11.0,57,0.00,,SKC,0.00,VWS V14.00,2013-08-05 14:53:00,
2013-08-05 10:58:00,79.7,63.1,29.99,ENE,74,3.0,7.0,57,0.00,,SKC,0.00,VWS V14.00,2013-08-05 14:58:00,
2013-08-05 11:03:00,80.1,63.5,29.99,East,91,1.0,7.0,57,0.00,,SKC,0.00,VWS V14.00,2013-08-05 15:03:00,
2013-08-05 11:08:00,80.8,64.2,29.99,NE,54,3.0,5.0,57,0.00,,SKC,0.00,VWS V14.00,2013-08-05 15:08:00,
2013-08-05 11:13:00,81.0,63.8,29.99,NE,53,0.0,5.0,56,0.00,,SKC,0.00,VWS V14.00,2013-08-05 15:13:00,
2013-08-05 11:18:00,81.5,63.8,29.99,ENE,59,3.0,6.0,55,0.00,,SKC,0.00,VWS V14.00,2013-08-05 15:18:00,
2013-08-05 11:23:00,81.3,64.1,29.99,East,80,0.0,7.0,56,0.00,,SKC,0.00,VWS V14.00,2013-08-05 15:23:00,
2013-08-05 11:28:00,81.7,65.0,29.99,NE,46,0.0,6.0,57,0.00,,SKC,0.00,VWS V14.00,2013-08-05 15:28:00,
2013-08-05 11:33:00,82.1,64.3,29.99,SE,138,11.0,11.0,55,0.00,,SKC,0.00,VWS V14.00,2013-08-05 15:33:00,
2013-08-05 11:38:00,82.3,64.5,29.99,SE,124,6.0,12.0,55,0.00,,SKC,0.00,VWS V14.00,2013-08-05 15:38:00,
2013-08-05 11:43:00,82.3,64.5,29.99,East,86,2.0,12.0,55,0.00,,SKC,0.00,VWS V14.00,2013-08-05 15:43:00,
2013-08-05 11:48:00,82.4,65.1,29.99,ESE,117,6.0,9.0,56,0.00,,SKC,0.00,VWS V14.00,2013-08-05 15:48:00,
2013-08-05 11:53:00,82.8,65.5,29.98,SSE,154,0.0,9.0,56,0.00,,SKC,0.00,VWS V14.00,2013-08-05 15:53:00,
2013-08-05 11:58:00,83.2,65.4,29.98,NE,55,1.0,7.0,55,0.00,,SKC,0.00,VWS V14.00,2013-08-05 15:58:00,
2013-08-05 12:03:00,83.4,67.6,29.98,ESE,114,0.0,11.0,59,0.00,,SKC,0.00,VWS V14.00,2013-08-05 16:03:00,
2013-08-05 12:08:00,83.2,65.4,29.98,SE,124,0.0,10.0,55,0.00,,SKC,0.00,VWS V14.00,2013-08-05 16:08:00,
2013-08-05 12:13:00,83.2,65.4,29.98,ESE,117,4.0,10.0,55,0.00,,SKC,0.00,VWS V14.00,2013-08-05 16:13:00,
2013-08-05 12:18:00,83.7,65.3,29.98,ESE,109,6.0,14.0,54,0.00,,SKC,0.00,VWS V14.00,2013-08-05 16:18:00,
2013-08-05 12:23:00,84.1,65.1,29.96,ESE,114,6.0,14.0,53,0.00,,SKC,0.00,VWS V14.00,2013-08-05 16:23:00,
2013-08-05 12:29:00,84.1,64.6,29.96,ESE,121,3.0,5.0,52,0.00,,SKC,0.00,VWS V14.00,2013-08-05 16:29:00,
2013-08-05 12:34:00,84.1,64.6,29.96,ESE,121,3.0,5.0,52,0.00,,SKC,0.00,VWS V14.00,2013-08-05 16:34:00,
2013-08-05 12:39:00,84.1,64.6,29.96,ESE,121,3.0,3.0,52,0.00,,SKC,0.00,VWS V14.00,2013-08-05 16:39:00,
2013-08-05 12:44:00,84.1,64.6,29.96,ESE,121,3.0,3.0,52,0.00,,SKC,0.00,VWS V14.00,2013-08-05 16:44:00,
2013-08-05 12:49:00,84.1,64.6,30.03,ESE,121,3.0,3.0,52,0.00,,SKC,0.00,VWS V14.00,2013-08-05 16:49:00,
2013-08-05 12:54:00,84.1,64.6,30.03,ESE,121,3.0,3.0,52,0.00,,SKC,0.00,VWS V14.00,2013-08-05 16:54:00,
2013-08-05 12:59:00,84.1,64.6,30.03,ESE,121,3.0,3.0,52,0.00,,SKC,0.00,VWS V14.00,2013-08-05 16:59:00,
2013-08-05 13:04:00,84.1,64.6,30.03,ESE,121,3.0,3.0,52,0.00,,SKC,0.00,VWS V14.00,2013-08-05 17:04:00,
2013-08-05 13:10:00,84.1,64.6,30.03,ESE,121,3.0,3.0,52,0.00,,SKC,0.00,VWS V14.00,2013-08-05 17:10:00,
2013-08-05 13:15:00,84.1,64.6,30.03,ESE,121,3.0,3.0,52,0.00,,SKC,0.00,VWS V14.00,2013-08-05 17:15:00,
2013-08-05 13:20:00,84.1,64.6,30.03,ESE,121,3.0,3.0,52,0.00,,SKC,0.00,VWS V14.00,2013-08-05 17:20:00,
2013-08-05 13:25:00,84.1,64.6,30.03,ESE,121,3.0,3.0,52,0.00,,SKC,0.00,VWS V14.00,2013-08-05 17:25:00,
2013-08-05 13:30:00,84.1,64.6,30.03,ESE,121,3.0,3.0,52,0.00,,SKC,0.00,VWS V14.00,2013-08-05 17:30:00,
2013-08-05 13:37:00,84.1,64.6,30.02,ESE,121,3.0,3.0,52,0.00,,SKC,0.00,VWS V14.00,2013-08-05 17:37:00,
2013-08-05 13:43:00,84.1,64.6,30.02,ESE,121,3.0,3.0,52,0.00,,SKC,0.00,VWS V14.00,2013-08-05 17:43:00,
2013-08-05 13:48:00,84.1,64.6,30.02,ESE,121,3.0,3.0,52,0.00,,SKC,0.00,VWS V14.00,2013-08-05 17:48:00,
2013-08-05 13:53:00,84.1,64.6,30.02,ESE,121,3.0,3.0,52,0.00,,SKC,0.00,VWS V14.00,2013-08-05 17:53:00,
2013-08-05 13:58:00,84.1,64.6,30.02,ESE,121,3.0,3.0,52,0.00,,SKC,0.00,VWS V14.00,2013-08-05 17:58:00,
2013-08-05 14:03:00,84.1,64.6,30.02,ESE,121,3.0,3.0,52,0.00,,SKC,0.00,VWS V14.00,2013-08-05 18:03:00,
2013-08-05 14:08:00,84.1,64.6,30.02,ESE,121,3.0,3.0,52,0.00,,SKC,0.00,VWS V14.00,2013-08-05 18:08:00,
2013-08-05 14:13:00,84.1,64.6,30.02,ESE,121,3.0,3.0,52,0.00,,SKC,0.00,VWS V14.00,2013-08-05 18:13:00,
2013-08-05 14:18:00,86.6,64.6,30.02,ENE,75,2.0,4.0,48,0.00,,SKC,0.00,VWS V14.00,2013-08-05 18:18:00,
2013-08-05 14:24:00,87.4,64.7,29.95,ENE,71,0.0,4.0,47,0.00,,SKC,0.00,VWS V14.00,2013-08-05 18:24:00,
2013-08-05 14:29:00,87.6,64.9,29.95,ENE,71,0.0,0.0,47,0.00,,SKC,0.00,VWS V14.00,2013-08-05 18:29:00,
2013-08-05 14:34:00,88.0,64.0,29.95,ENE,71,0.0,1.0,45,0.00,,SKC,0.00,VWS V14.00,2013-08-05 18:34:00,
2013-08-05 14:39:00,87.8,64.5,29.95,ENE,61,3.0,5.0,46,0.00,,SKC,0.00,VWS V14.00,2013-08-05 18:39:00,
2013-08-05 14:44:00,87.2,64.5,29.95,ENE,59,0.0,5.0,47,0.00,,SKC,0.00,VWS V14.00,2013-08-05 18:44:00,
2013-08-05 14:49:00,87.0,64.3,29.94,SE,127,1.0,5.0,47,0.00,,SKC,0.00,VWS V14.00,2013-08-05 18:49:00,
2013-08-05 14:54:00,87.0,63.7,29.94,South,181,0.0,6.0,46,0.00,,SKC,0.00,VWS V14.00,2013-08-05 18:54:00,
2013-08-05 14:59:00,87.6,63.0,29.94,ENE,67,0.0,2.0,44,0.00,,SKC,0.00,VWS V14.00,2013-08-05 18:59:00,
2013-08-05 15:05:00,87.8,64.5,29.94,SSE,155,3.0,3.0,46,0.00,,SKC,0.00,VWS V14.00,2013-08-05 19:05:00,
2013-08-05 15:10:00,87.8,63.8,29.94,East,99,1.0,7.0,45,0.00,,SKC,0.00,VWS V14.00,2013-08-05 19:10:00,
2013-08-05 15:15:00,87.8,63.2,29.94,SE,129,0.0,0.0,44,0.00,,SKC,0.00,VWS V14.00,2013-08-05 19:15:00,
2013-08-05 15:20:00,87.8,63.2,29.92,SE,129,0.0,0.0,44,0.00,,SKC,0.00,VWS V14.00,2013-08-05 19:20:00,
2013-08-05 15:25:00,89.2,63.8,29.92,SSE,152,2.0,2.0,43,0.00,,SKC,0.00,VWS V14.00,2013-08-05 19:25:00,
2013-08-05 15:30:00,88.8,62.8,29.92,SE,128,3.0,8.0,42,0.00,,SKC,0.00,VWS V14.00,2013-08-05 19:30:00,
2013-08-05 15:38:00,88.2,62.9,29.91,East,100,0.0,5.0,43,0.00,,SKC,0.00,VWS V14.00,2013-08-05 19:38:00,
2013-08-05 15:43:00,88.2,62.9,29.91,East,100,0.0,5.0,43,0.00,,SKC,0.00,VWS V14.00,2013-08-05 19:43:00,
2013-08-05 15:48:00,87.8,62.5,29.91,East,92,0.0,3.0,43,0.00,,SKC,0.00,VWS V14.00,2013-08-05 19:48:00,
2013-08-05 15:53:00,87.8,63.2,29.91,East,92,1.0,3.0,44,0.00,,SKC,0.00,VWS V14.00,2013-08-05 19:53:00,
2013-08-05 15:58:00,87.6,62.4,29.91,East,93,1.0,6.0,43,0.00,,SKC,0.00,VWS V14.00,2013-08-05 19:58:00,
2013-08-05 16:03:00,87.4,63.5,29.91,East,93,0.0,6.0,45,0.00,,SKC,0.00,VWS V14.00,2013-08-05 20:03:00,
2013-08-05 16:09:00,87.4,63.5,29.91,East,93,0.0,0.0,45,0.00,,SKC,0.00,VWS V14.00,2013-08-05 20:09:00,
2013-08-05 16:14:00,87.4,63.5,29.91,East,93,0.0,0.0,45,0.00,,SKC,0.00,VWS V14.00,2013-08-05 20:14:00,
2013-08-05 16:19:00,87.4,63.5,29.91,East,93,0.0,0.0,45,0.00,,SKC,0.00,VWS V14.00,2013-08-05 20:19:00,
2013-08-05 16:24:00,87.4,63.5,29.99,East,93,0.0,0.0,45,0.00,,SKC,0.00,VWS V14.00,2013-08-05 20:24:00,
2013-08-05 16:29:00,87.4,60.8,29.99,East,93,0.0,3.0,41,0.00,,SKC,0.00,VWS V14.00,2013-08-05 20:29:00,
2013-08-05 16:34:00,87.8,61.9,29.99,East,93,3.0,5.0,42,0.00,,SKC,0.00,VWS V14.00,2013-08-05 20:34:00,
2013-08-05 16:39:00,87.8,61.2,29.90,East,93,2.0,5.0,41,0.00,,SKC,0.00,VWS V14.00,2013-08-05 20:39:00,
2013-08-05 16:44:00,87.8,61.2,29.90,East,93,0.0,5.0,41,0.00,,SKC,0.00,VWS V14.00,2013-08-05 20:44:00,
2013-08-05 16:49:00,87.8,61.2,29.90,East,93,0.0,3.0,41,0.00,,SKC,0.00,VWS V14.00,2013-08-05 20:49:00,
2013-08-05 16:54:00,88.6,61.9,29.90,East,93,0.0,3.0,41,0.00,,SKC,0.00,VWS V14.00,2013-08-05 20:54:00,
2013-08-05 16:59:00,89.2,61.0,29.90,East,93,1.0,3.0,39,0.00,,SKC,0.00,VWS V14.00,2013-08-05 20:59:00,
2013-08-05 17:04:00,89.7,62.9,29.89,East,93,0.0,3.0,41,0.00,,SKC,0.00,VWS V14.00,2013-08-05 21:04:00,
2013-08-05 17:09:00,89.7,62.2,29.89,East,93,0.0,0.0,40,0.00,,SKC,0.00,VWS V14.00,2013-08-05 21:09:00,
2013-08-05 17:14:00,89.7,62.2,29.89,East,93,0.0,0.0,40,0.00,,SKC,0.00,VWS V14.00,2013-08-05 21:14:00,
2013-08-05 17:19:00,89.7,62.2,29.94,East,93,0.0,0.0,40,0.00,,SKC,0.00,VWS V14.00,2013-08-05 21:19:00,
2013-08-05 17:24:00,89.7,62.2,29.94,East,93,0.0,0.0,40,0.00,,SKC,0.00,VWS V14.00,2013-08-05 21:24:00,
2013-08-05 17:29:00,89.7,62.2,29.94,East,93,0.0,0.0,40,0.00,,SKC,0.00,VWS V14.00,2013-08-05 21:29:00,
2013-08-05 17:34:00,89.7,62.2,29.94,East,93,0.0,0.0,40,0.00,,SKC,0.00,VWS V14.00,2013-08-05 21:34:00,
2013-08-05 17:39:00,89.7,62.2,29.94,East,93,0.0,0.0,40,0.00,,SKC,0.00,VWS V14.00,2013-08-05 21:39:00,
2013-08-05 17:44:00,89.7,62.2,29.94,East,93,0.0,0.0,40,0.00,,SKC,0.00,VWS V14.00,2013-08-05 21:44:00,
2013-08-05 17:50:00,89.7,62.2,29.95,East,93,0.0,0.0,40,0.00,,SKC,0.00,VWS V14.00,2013-08-05 21:50:00,
2013-08-05 17:55:00,89.7,62.2,29.95,East,93,0.0,0.0,40,0.00,,SKC,0.00,VWS V14.00,2013-08-05 21:55:00,
2013-08-05 18:00:00,89.7,62.2,29.95,East,93,0.0,0.0,40,0.00,,SKC,0.00,VWS V14.00,2013-08-05 22:00:00,
2013-08-05 18:05:00,89.7,62.2,29.94,East,93,0.0,0.0,40,0.00,,SKC,0.00,VWS V14.00,2013-08-05 22:05:00,
2013-08-05 18:10:00,89.7,62.2,29.94,East,93,0.0,0.0,40,0.00,,SKC,0.00,VWS V14.00,2013-08-05 22:10:00,
2013-08-05 18:15:00,89.7,62.2,29.94,East,93,0.0,0.0,40,0.00,,SKC,0.00,VWS V14.00,2013-08-05 22:15:00,
2013-08-05 18:20:00,89.7,62.2,29.97,East,93,0.0,0.0,40,0.00,,SKC,0.00,VWS V14.00,2013-08-05 22:20:00,
2013-08-05 18:25:00,86.5,64.5,29.97,SSW,209,0.0,0.0,48,0.00,,SKC,0.00,VWS V14.00,2013-08-05 22:25:00,
2013-08-05 18:30:00,86.6,64.0,29.97,SSW,209,0.0,2.0,47,0.00,,SKC,0.00,VWS V14.00,2013-08-05 22:30:00,
2013-08-05 18:35:00,86.6,62.8,29.89,SW,221,0.0,0.0,45,0.00,,SKC,0.00,VWS V14.00,2013-08-05 22:35:00,
2013-08-05 18:40:00,86.6,62.8,29.89,SW,221,0.0,5.0,45,0.00,,SKC,0.00,VWS V14.00,2013-08-05 22:40:00,
2013-08-05 18:45:00,86.8,64.8,29.89,SW,221,0.0,0.0,48,0.00,,SKC,0.00,VWS V14.00,2013-08-05 22:45:00,
2013-08-05 18:51:00,87.0,64.3,29.89,SW,221,0.0,1.0,47,0.00,,SKC,0.00,VWS V14.00,2013-08-05 22:51:00,
2013-08-05 18:56:00,87.0,64.3,29.89,SW,232,0.0,3.0,47,0.00,,SKC,0.00,VWS V14.00,2013-08-05 22:56:00,
2013-08-05 19:01:00,87.2,63.9,29.89,SW,232,4.0,6.0,46,0.00,,SKC,0.00,VWS V14.00,2013-08-05 23:01:00,
2013-08-05 19:06:00,87.2,64.5,29.89,SW,235,1.0,4.0,47,0.00,,SKC,0.00,VWS V14.00,2013-08-05 23:06:00,
2013-08-05 19:11:00,87.2,63.3,29.89,SW,236,4.0,6.0,45,0.00,,SKC,0.00,VWS V14.00,2013-08-05 23:11:00,
2013-08-05 19:16:00,87.2,63.3,29.89,SW,236,0.0,3.0,45,0.00,,SKC,0.00,VWS V14.00,2013-08-05 23:16:00,
2013-08-05 19:21:00,87.2,64.5,29.89,SW,236,0.0,3.0,47,0.00,,SKC,0.00,VWS V14.00,2013-08-05 23:21:00,
2013-08-05 19:26:00,86.8,64.2,29.89,SW,236,0.0,0.0,47,0.00,,SKC,0.00,VWS V14.00,2013-08-05 23:26:00,
2013-08-05 19:31:00,86.5,65.1,29.89,SW,236,0.0,0.0,49,0.00,,SKC,0.00,VWS V14.00,2013-08-05 23:31:00,
2013-08-05 19:36:00,85.9,64.5,29.89,NW,306,4.0,6.0,49,0.00,,SKC,0.00,VWS V14.00,2013-08-05 23:36:00,
2013-08-05 19:42:00,85.1,64.4,29.89,NW,304,2.0,7.0,50,0.00,,SKC,0.00,VWS V14.00,2013-08-05 23:42:00,
2013-08-05 19:47:00,84.5,65.0,29.89,NW,304,0.0,1.0,52,0.00,,SKC,0.00,VWS V14.00,2013-08-05 23:47:00,
2013-08-05 19:52:00,84.1,65.7,29.90,NW,304,0.0,1.0,54,0.00,,SKC,0.00,VWS V14.00,2013-08-05 23:52:00,
2013-08-05 19:57:00,83.7,65.8,29.90,NW,304,0.0,0.0,55,0.00,,SKC,0.00,VWS V14.00,2013-08-05 23:57:00,
2013-08-05 20:02:00,83.4,65.6,29.90,NW,304,0.0,0.0,55,0.00,,SKC,0.00,VWS V14.00,2013-08-06 00:02:00,
2013-08-05 20:07:00,83.2,65.9,29.91,NW,304,0.0,0.0,56,0.00,,SKC,0.00,VWS V14.00,2013-08-06 00:07:00,
2013-08-05 20:12:00,82.6,64.8,29.91,NW,304,0.0,1.0,55,0.00,,SKC,0.00,VWS V14.00,2013-08-06 00:12:00,
2013-08-05 20:17:00,82.3,64.0,29.91,NW,304,0.0,0.0,54,0.00,,SKC,0.00,VWS V14.00,2013-08-06 00:17:00,
2013-08-05 20:22:00,82.3,63.5,29.91,NW,304,0.0,0.0,53,0.00,,SKC,0.00,VWS V14.00,2013-08-06 00:22:00,
2013-08-05 20:27:00,82.3,63.5,29.91,NW,304,0.0,0.0,53,0.00,,SKC,0.00,VWS V14.00,2013-08-06 00:27:00,
2013-08-05 20:32:00,81.5,63.3,29.91,NW,304,0.0,0.0,54,0.00,,SKC,0.00,VWS V14.00,2013-08-06 00:32:00,
2013-08-05 20:38:00,81.3,63.6,29.92,NW,304,0.0,0.0,55,0.00,,SKC,0.00,VWS V14.00,2013-08-06 00:38:00,
2013-08-05 20:43:00,81.1,63.9,29.92,NW,304,0.0,0.0,56,0.00,,SKC,0.00,VWS V14.00,2013-08-06 00:43:00,
2013-08-05 20:48:00,80.8,64.2,29.92,NW,304,0.0,0.0,57,0.00,,SKC,0.00,VWS V14.00,2013-08-06 00:48:00,
2013-08-05 20:53:00,80.6,64.0,29.92,NW,304,0.0,0.0,57,0.00,,SKC,0.00,VWS V14.00,2013-08-06 00:53:00,
2013-08-05 20:58:00,80.4,64.3,29.92,NW,304,0.0,0.0,58,0.00,,SKC,0.00,VWS V14.00,2013-08-06 00:58:00,
2013-08-05 21:03:00,80.4,64.3,29.92,NW,304,0.0,0.0,58,0.00,,SKC,0.00,VWS V14.00,2013-08-06 01:03:00,
2013-08-05 21:08:00,79.7,64.6,29.92,NW,304,0.0,0.0,60,0.00,,SKC,0.00,VWS V14.00,2013-08-06 01:08:00,
2013-08-05 21:13:00,79.5,64.9,29.92,NW,304,0.0,0.0,61,0.00,,SKC,0.00,VWS V14.00,2013-08-06 01:13:00,
2013-08-05 21:18:00,79.2,64.6,29.92,NW,304,0.0,0.0,61,0.00,,SKC,0.00,VWS V14.00,2013-08-06 01:18:00,
2013-08-05 21:23:00,79.0,64.9,29.92,NW,304,0.0,0.0,62,0.00,,SKC,0.00,VWS V14.00,2013-08-06 01:23:00,
2013-08-05 21:28:00,78.8,64.7,29.92,NW,304,0.0,0.0,62,0.00,,SKC,0.00,VWS V14.00,2013-08-06 01:28:00,
2013-08-05 21:33:00,78.6,64.5,29.92,NW,304,0.0,0.0,62,0.00,,SKC,0.00,VWS V14.00,2013-08-06 01:33:00,
2013-08-05 21:38:00,78.6,64.5,29.92,NW,304,0.0,0.0,62,0.00,,SKC,0.00,VWS V14.00,2013-08-06 01:38:00,
2013-08-05 21:44:00,78.5,64.4,29.92,NW,304,0.0,0.0,62,0.00,,SKC,0.00,VWS V14.00,2013-08-06 01:44:00,
2013-08-05 21:49:00,78.3,64.7,29.92,NW,304,0.0,0.0,63,0.00,,SKC,0.00,VWS V14.00,2013-08-06 01:49:00,
2013-08-05 21:54:00,78.1,64.5,29.92,NW,304,0.0,0.0,63,0.00,,SKC,0.00,VWS V14.00,2013-08-06 01:54:00,
2013-08-05 21:59:00,77.9,65.6,29.92,NW,304,0.0,0.0,66,0.00,,SKC,0.00,VWS V14.00,2013-08-06 01:59:00,
2013-08-05 22:04:00,77.8,65.5,29.92,NW,304,0.0,0.0,66,0.00,,SKC,0.00,VWS V14.00,2013-08-06 02:04:00,
2013-08-05 22:09:00,77.8,65.5,29.92,NW,304,0.0,0.0,66,0.00,,SKC,0.00,VWS V14.00,2013-08-06 02:09:00,
2013-08-05 22:14:00,77.2,65.0,29.92,NW,304,0.0,0.0,66,0.00,,SKC,0.00,VWS V14.00,2013-08-06 02:14:00,
2013-08-05 22:19:00,77.1,64.9,29.92,NW,304,0.0,0.0,66,0.00,,SKC,0.00,VWS V14.00,2013-08-06 02:19:00,
2013-08-05 22:24:00,76.9,65.1,29.92,NW,304,0.0,0.0,67,0.00,,SKC,0.00,VWS V14.00,2013-08-06 02:24:00,
2013-08-05 22:29:00,76.5,64.7,29.92,NW,304,0.0,0.0,67,0.00,,SKC,0.00,VWS V14.00,2013-08-06 02:29:00,
2013-08-05 22:34:00,76.4,65.5,29.92,NW,304,0.0,0.0,69,0.00,,SKC,0.00,VWS V14.00,2013-08-06 02:34:00,
2013-08-05 22:39:00,76.2,65.3,29.92,NW,304,0.0,0.0,69,0.00,,SKC,0.00,VWS V14.00,2013-08-06 02:39:00,
2013-08-05 22:45:00,75.8,65.3,29.92,NW,304,0.0,0.0,70,0.00,,SKC,0.00,VWS V14.00,2013-08-06 02:45:00,
2013-08-05 22:50:00,75.5,65.4,29.92,NW,304,0.0,0.0,71,0.00,,SKC,0.00,VWS V14.00,2013-08-06 02:50:00,
2013-08-05 22:55:00,75.3,65.3,29.92,NW,304,0.0,0.0,71,0.00,,SKC,0.00,VWS V14.00,2013-08-06 02:55:00,
2013-08-05 23:00:00,75.2,65.6,29.92,NW,304,0.0,0.0,72,0.00,,SKC,0.00,VWS V14.00,2013-08-06 03:00:00,
2013-08-05 23:05:00,75.2,66.0,29.93,NW,304,0.0,0.0,73,0.00,,SKC,0.00,VWS V14.00,2013-08-06 03:05:00,
2013-08-05 23:10:00,74.8,65.6,29.93,NW,304,0.0,0.0,73,0.00,,SKC,0.00,VWS V14.00,2013-08-06 03:10:00,
2013-08-05 23:15:00,74.8,66.0,29.93,NW,304,0.0,0.0,74,0.00,,SKC,0.00,VWS V14.00,2013-08-06 03:15:00,
2013-08-05 23:20:00,74.6,65.8,29.92,NW,304,0.0,0.0,74,0.00,,SKC,0.00,VWS V14.00,2013-08-06 03:20:00,
2013-08-05 23:25:00,74.3,65.9,29.92,NW,304,0.0,0.0,75,0.00,,SKC,0.00,VWS V14.00,2013-08-06 03:25:00,
2013-08-05 23:30:00,74.1,65.7,29.92,NW,304,0.0,0.0,75,0.00,,SKC,0.00,VWS V14.00,2013-08-06 03:30:00,
2013-08-05 23:35:00,74.0,65.6,29.92,NW,304,0.0,0.0,75,0.00,,SKC,0.00,VWS V14.00,2013-08-06 03:35:00,
2013-08-05 23:40:00,74.0,66.0,29.92,NW,304,0.0,0.0,76,0.00,,SKC,0.00,VWS V14.00,2013-08-06 03:40:00,
2013-08-05 23:45:00,74.0,66.0,29.92,NW,304,0.0,0.0,76,0.00,,SKC,0.00,VWS V14.00,2013-08-06 03:45:00,
2013-08-05 23:51:00,73.8,65.8,29.92,NW,304,0.0,0.0,76,0.00,,SKC,0.00,VWS V14.00,2013-08-06 03:51:00,
2013-08-05 23:56:00,73.6,65.6,29.92,NW,304,0.0,0.0,76,0.00,,SKC,0.00,VWS V14.00,2013-08-06 03:56:00,